Regional Weather Roundup
Issued by NWS

Home | Current Version | Previous Version | Graphics & Text | Print | Product List | Glossary On
Versions: 1 2 3 4 5 6 7 8 9 10 11 12 13 14 15 16 17 18 19 20 21 22 23 24 25 26 27 28 29 30 31 32 33 34 35 36 37 38 39 40 41 42 43 44 45 46 47 48 49 50
000
ASUS43 KLSX 071307
RWRMO

WEATHER SUMMARY FOR MISSOURI
NATIONAL WEATHER SERVICE SPRINGFIELD MO
800 AM CDT TUE JUL 07 2015

NOTE: "FAIR" INDICATES FEW OR NO CLOUDS BELOW 12,000 FEET WITH NO
       SIGNIFICANT WEATHER AND/OR OBSTRUCTIONS TO VISIBILITY.
       CURRENT SKY AND/OR WEATHER CONDITIONS ARE NOT AVAILABLE FOR
       CHILLICOTHE AND FARMINGTON.

MOZ001>031-035>038-043-044-053-054-071400-
...NORTHERN AND WESTERN MISSOURI...

CITY           SKY/WX    TMP DP  RH WIND       PRES   REMARKS
KANSAS CTY INT CLOUDY    63  60  90 N8        30.05R FOG
KANSAS C DTWN  CLOUDY    65  63  93 N3        30.03R FOG
LEE`S SUMMIT   CLOUDY    63  59  87 NE10      30.04R FOG
ST JOSEPH      PTSUNNY   62  55  77 MISG      30.07R
CHILLICOTHE      N/A     65  61  87 N8        30.03R
KIRKSVILLE     CLOUDY    63  58  83 N15G21    30.01S HAZE

$$
MOZ066>068-077>081-088>096-101>105-071400-
...SOUTHWEST MISSOURI...

CITY           SKY/WX    TMP DP  RH WIND       PRES   REMARKS
SPRINGFIELD    CLOUDY    74  72  93 SE3       29.95S
JOPLIN         CLOUDY    72  70  93 NW6       29.96R FOG

$$
MOZ032>034-039>042-045>050-055>058-069>072-071400-
...CENTRAL MISSOURI...

CITY           SKY/WX    TMP DP  RH WIND       PRES   REMARKS
COLUMBIA       CLOUDY    66  64  93 N8        29.98R FOG
ROLLA          CLOUDY    70  70 100 SW6       29.95R
SEDALIA        CLOUDY    64  60  87 N10       30.01R FOG
WHITEMAN AFB   CLOUDY    63  59  87 N14       30.00R FOG
WARRENSBURG    CLOUDY    63  57  82 N9G16     30.02R HAZE
OSAGE BEACH    CLOUDY    72  70  94 CALM      29.95S

$$
MOZ051-052-059>065-071400-
...EAST CENTRAL MISSOURI...

CITY           SKY/WX    TMP DP  RH WIND       PRES   REMARKS
ST LOUIS INTL  CLOUDY    75  72  88 SW8       29.92S
SPIRIT OF STL  LGT RAIN  73  72  96 SW6       29.91S
ST CHARLES     CLOUDY    74  72  93 SW6       29.90S

$$
MOZ072>076-082>087-097>100-106>115-071400-
...SOUTH CENTRAL AND SOUTHEAST MISSOURI...

CITY           SKY/WX    TMP DP  RH WIND       PRES   REMARKS
CAPE GIRARDEAU CLOUDY    77  74  90 S12       29.95S
FARMINGTON     CLOUDY    72  70  94 SW5       30.01R
POPLAR BLUFF   CLOUDY    78  74  87 SW13      29.96R
WEST PLAINS    PTSUNNY   76  71  85 SW8       29.99R

$$



USA.gov is the U.S. government's official web portal to all federal, state and local government web resources and services.